Location: *
(32.2836°N, 83.4767°W)
Time: 11:49:16
(UTC+00:00)

Daily predictions for brighter satellites

Satellite Brightness Start Highest point End
(mag) Time Altitude Azimuth Time Altitude Azimuth Time Altitude Azimuth
Okean O Rocket 2.7 12:02:01 10° NNW 12:05:33 24° WNW 12:09:04 10° WSW
In-Cosmos 22 Rocket 4.3 12:01:53 10° N 12:07:13 77° E 12:12:30 10° SSE
Cosmos 1076 Rocket 3.5 12:07:00 10° N 12:11:20 72° W 12:15:39 10° S
Milstar 3 3.7 12:06:09 10° WSW 12:15:20 55° S 12:21:52 10° E
H-2A R/B 3.9 23:23:10 10° S 23:26:52 49° W 23:30:39 10° NNW
DELTA 2 R/B (1) 4.1 23:23:59 10° WNW 23:29:20 45° NNE 23:34:42 10° E
Meteor 2-10 Rocket 3.5 23:25:33 10° N 23:30:38 59° E 23:35:34 10° SSE
Fregat R/B Cluster 11 4.1 23:35:13 10° S 23:37:26 36° ESE 23:41:44 10° NE
CENTAUR R/B 4.0 23:36:18 10° SE 23:38:30 12° ESE 23:40:46 10° E
SL-16 R/B 2.3 23:33:37 10° NNW 23:39:12 57° ENE 23:44:44 10° SE
NOSS 3-2 (A) 3.9 23:40:01 10° S 23:45:01 36° ESE 23:50:25 10° NE
Haruka 2.7 23:42:03 10° WSW 23:45:20 61° SSE 23:49:25 12° E
GPS 2-05 Rocket1 1.9 23:46:48 10° WSW 23:49:19 77° SSE 23:50:57 19° ENE
Cosmos 1437 4.3 23:48:20 10° SE 23:50:15 16° E 23:50:23 16° E
Cosmos 2263 Rocket 2.6 23:45:09 10° S 23:50:18 41° ESE 23:55:29 10° NE
CZ-4 R/B 1.5 23:48:56 10° SSE 23:52:53 55° ENE 23:56:56 10° N
